Montana Department of Transportation

Main Content

Accidents and Incidents Report

Hourly Weather Roundup

ASUS45 KTFX 201019
RWRMT 
MONTANA HOURLY WEATHER ROUNDUP
NATIONAL WEATHER SERVICE GREAT FALLS MT
419 AM MDT SUN APR 20 2014

NOTE: "FAIR" INDICATES FEW OR NO CLOUDS BELOW 12000 FEET WITH NO
SIGNIFICANT WEATHER AND/OR OBSTRUCTIONS TO VISIBILITY.

* THESE STATIONS ARE NOT UNDER NWS QUALITY CONTROL. THEY DO NOT
   REPORT WEATHER SUCH AS PRECIPITATION OR FOG.

MTZ001.007-043-201100-
WEST OF THE DIVIDE
CITY           SKY/WX    TMP DP  RH WIND       PRES   REMARKS
KALISPELL      MOCLDY    39  36  89 S14       30.02R WCI  31 
MISSOULA       PTCLDY    43  30  60 NW10      30.12R 
BUTTE          CLOUDY    41  27  58 NW14      30.06R 
MULLAN PASS    FRZ RAIN  28  25  89 W14G22    30.08R WCI  17 
* ESSEX        N/A       35  34  96 SW3        N/A   
* LINCOLN      N/A       40  31  70 S7G14      N/A   WCI  35 
* LOOKOUT PASS N/A       35  29  79 SE7G15     N/A   WCI  29 
* POLSON       N/A       42  30  63 S4G13      N/A   
* RONAN APT    PTCLDY    43  32  65 SE5        N/A   
* SEELEY LAKE  N/A       37  34  89 NE2        N/A   
* THOMP F APT  PTCLDY    40  21  47 NE2        N/A   
* YAAK HILL    N/A       45  32  60 SE5G12     N/A   
--------------------------------

MTZ008-052.055-201100-
SOUTHWEST MONTANA
CITY           SKY/WX    TMP DP  RH WIND       PRES   REMARKS
BOZEMAN        CLOUDY    46  25  44 NW12      29.97R 
DILLON         CLOUDY    46  25  44 W10       30.01R 
W YELLOWSTONE  N/A       28  23  81 N/A        N/A   
* THREE FORKS  CLOUDY    52  30  43 N20G28     N/A   
* BOULDER HILL N/A       39  25  57 NE6        N/A   WCI  35 
* MONIDA PASS  N/A       40  20  45 SE11       N/A   WCI  33 
* RAYNOLDS PAS N/A       38  18  44 SE12       N/A   WCI  30 
* WHITEHALL    N/A       51  24  35 NW6G17     N/A   
* WISE RIVER   N/A       42  25  51 NW11G17    N/A   
--------------------------------

MTZ009.010-012-014-046-048-049-054-201100-
EAST SLOPES AND CENTRAL MONTANA
CITY           SKY/WX    TMP DP  RH WIND       PRES   REMARKS
CUT BANK       MOCLDY    39  30  70 W24       29.89R WCI  28 
GREAT FALLS    CLOUDY    46  30  54 W22G30    29.94R 
HELENA         CLOUDY    46  27  48 W21G28    30.03R 
MALMSTROM AFB  CLOUDY    48  28  46 SW10      29.93R 
* CONRAD       MOCLDY    45  28  51 SW15G23    N/A   
* DEARBORN     N/A       49  27  43 S13G19     N/A   
* MONARCH      N/A       41  19  41 NW12       N/A   
* PENDROY      N/A       37  24  59 W9G14      N/A   WCI  30 
* ROGERS PASS  N/A       36  27  70 SE17G28    N/A   WCI  26 
* SAINT MARY   N/A       35  32  89 S6G16      N/A   WCI  30 
* SWEET GRASS  N/A       41  30  65 SW26G37    N/A   
* WHITE SULPH  N/A       44  26  49 NW18G29    N/A   
--------------------------------

MTZ011-013-016-021-035-040-045-047-050-051-201100-
NORTH CENTRAL MONTANA
CITY           SKY/WX    TMP DP  RH WIND       PRES   REMARKS
HAVRE          CLOUDY    46  30  54 SW7       29.85R 
LEWISTOWN      CLOUDY    46  25  44 NW25G37   29.89R 
* CHINOOK      CLOUDY    39  27  62 CALM      29.86R 
* FORT BENTON  CLOUDY    50  28  43 SW18G24   29.92R 
* MALTA APT    CLOUDY    37  21  52 CALM      29.76F 
* CHESTER      N/A       48  27  44 W20G32     N/A   
* DENTON       N/A       46  24  42 W21G28     N/A   
* GEYSER       N/A       44  25  47 W7G14      N/A   
* JUDITH GAP   N/A       40  27  60 SW4        N/A   
* LOMA         N/A       51  28  41 W22G29     N/A   
--------------------------------

MTZ017.020-022.027-061-062-201100-
NORTHEAST MONTANA
CITY           SKY/WX    TMP DP  RH WIND       PRES   REMARKS
GLASGOW        CLOUDY    37  30  76 E10       29.80F WCI  30 
GLENDIVE       CLEAR     39  23  53 S3        29.87F 
JORDAN         CLOUDY    37  28  70 E3        29.80F 
SIDNEY         CLEAR     30  27  89 CALM      29.89F 
WOLF POINT     MOCLDY    32  27  82 NE7       29.85F WCI  25 
* BEAVER HILL  N/A       44  26  49 SE14       N/A   
* CIRCLE       N/A       45  25  45 N/A        N/A   
* LINDSAY DVD  N/A       41  23  49 NE4        N/A   
*NAVAJO       N/A       38  29  70 S9         N/A   WCI  32 
* SACO         N/A       39  29  67 E6         N/A   WCI  35 
* SCOBEY APT   MOCLDY    36  27  70 CALM      29.82F 
--------------------------------

MTZ028.042-056.058-201100-
SOUTHCENTRAL AND SOUTHEAST MONTANA
CITY           SKY/WX    TMP DP  RH WIND       PRES   REMARKS
BAKER          CLEAR     36  27  70 E9        29.90F WCI  29 
BILLINGS       MOCLDY    48  27  44 SW12      29.84S 
LIVINGSTON     CLOUDY    54  21  27 NW22G36   29.92R 
MILES CITY     CLEAR     45  32  60 S10       29.84S 
* EKALAKA APT  CLEAR     45  30  56 SE8       29.89S 
* LAUREL APT   MOCLDY    46  25  44 SW5        N/A   
* ROUNDUP APT  CLOUDY    43  25  49 SW6        N/A   
* HYSHAM       N/A       53  22  30 W5         N/A   
* LAME DEER    N/A       47  28  48 S7         N/A   
* REED POINT   N/A       33  29  85 N/A        N/A   
* ROSCOE HILL  N/A       51   9  18 NE9G16     N/A   
--------------------------------

REGIONAL REPORTS...DAKOTAS
CITY           SKY/WX    TMP DP  RH WIND       PRES   REMARKS
WILLISTON      CLEAR     30  27  89 CALM      29.88F 
DICKINSON      CLEAR     36  23  59 S8        29.89F WCI  30 
CROSBY         CLEAR     32  32 100 S7        29.89F WCI  25 
TIOGA          CLEAR     30  30 100 NE3       29.93F 
WATFORD CITY   CLEAR     27  25  92 CALM      29.88S 
BISMARCK       CLEAR     32 N/A N/A NE6       29.98F WCI  26 
GRAND FORKS    CLEAR     30  28  92 CALM      30.02R 
FARGO          CLEAR     34  30  85 CALM      30.02S 
BUFFALO SD     CLEAR     43  27  53 S5        29.86F 
RAPID CITY     CLEAR     39  30  70 S7        29.92F WCI  34 
--------------------------------

REGIONAL REPORTS...WYOMING/IDAHO/WASHINGTON
CITY           SKY/WX    TMP DP  RH WIND       PRES   REMARKS
GILLETTE       CLEAR     45  34  65 VRB5      29.92S 
SHERIDAN       CLEAR     36  28  73 CALM      29.90S 
CODY           PTCLDY    45  25  45 CALM      29.94S 
YELLOWSTONE LA PTCLDY    25  19  78 CALM      30.10S 
SALMON         PTCLDY    48  27  44 NW14G20   30.09R 
MULLAN PASS    FRZ RAIN  28  25  89 W14G22    30.08S WCI  17 
SAND POINT     MOCLDY    45  32  60 SW7       30.08R 
SPOKANE        CLEAR     39  30  70 S14       30.12R WCI  31 
--------------------------------

REGIONAL REPORTS...ALBERTA
CITY           SKY/WX    TMP DP  RH WIND       PRES   REMARKS
CALGARY        MOCLDY    41  25  53 NW7       29.77R 
LETHBRIDGE     CLEAR     43  30  60 W22G29    29.81R 
MEDICINE HAT   MOCLDY    46  32  58 S10       29.78R 
EDMONTON       LGT RAIN  41  37  86 E13       29.75R 
WATERTON GATE  N/A       37  32  82 SW16G22    N/A   WCI  28 
CARDSTON       N/A       39  32  76 W13G22     N/A   WCI  31 
MILK RIVER     N/A       39  30  70 SW21G30    N/A   WCI  29 
--------------------------------

REGIONAL REPORTS...SASKATCHEWAN
CITY           SKY/WX    TMP DP  RH WIND       PRES   REMARKS
SWIFT CURRENT  CLEAR     30  28  92 SE9       29.78F WCI  22 
REGINA         MOCLDY    28  28 100 E7        29.89F WCI  21 
VAL MARIE      N/A       34  27  76 NE3        N/A   
ASSINIBOIA     N/A       30  28  92 E9         N/A   WCI  22 

--------------------------------